| time (UTC) | temp C | wind direction | speed KPH | gust KPH | rain 1hr cm | rain 24hr cm | rain mn cm | humidity % | barometer mb |
| 20260510130808 | 22 | 350 | 0.0 | 1.6 | 0.00 | 0.00 | 0.00 | 64 | 1015.4 |
| 20260510130536 | 22 | 350 | 0.0 | 1.6 | 0.00 | 0.00 | 0.00 | 61 | 1015.3 |
| 20260510125806 | 22 | 350 | 0.0 | 1.6 | 0.00 | 0.00 | 0.00 | 61 | 1015.6 |
| 20260510125538 | 22 | 350 | 0.0 | 1.6 | 0.00 | 0.00 | 0.00 | 64 | 1015.6 |
| 20260510124805 | 22 | 350 | 0.0 | 1.6 | 0.00 | 0.00 | 0.00 | 63 | 1015.6 |
| 20260510124536 | 21 | 350 | 0.0 | 1.6 | 0.00 | 0.00 | 0.00 | 70 | 1015.4 |
| 20260510123802 | 21 | 350 | 0.0 | 1.6 | 0.00 | 0.00 | 0.00 | 67 | 1015.3 |
| 20260510123300 | 20 | 350 | 0.0 | 1.6 | 0.00 | 0.00 | 0.00 | 70 | 1015.0 |
| 20260510122758 | 20 | 350 | 0.0 | 1.6 | 0.00 | 0.00 | 0.00 | 78 | 1014.9 |
| 20260510122528 | 19 | 350 | 0.0 | 1.6 | 0.00 | 0.00 | 0.00 | 81 | 1015.0 |
| 20260510121756 | 18 | 350 | 0.0 | 1.6 | 0.00 | 0.00 | 0.00 | 84 | 1015.0 |
| 20260510121256 | 17 | 350 | 0.0 | 1.6 | 0.00 | 0.00 | 0.00 | 91 | 1014.9 |
| 20260510120754 | 17 | 350 | 0.0 | 0.0 | 0.00 | 0.00 | 0.00 | 93 | 1014.8 |
| 20260510120254 | 16 | 350 | 0.0 | 1.6 | 0.00 | 0.00 | 0.00 | 94 | 1014.7 |
| 20260510115754 | 15 | 350 | 0.0 | 1.6 | 0.00 | 0.00 | 0.00 | 94 | 1014.6 |
| 20260510115252 | 15 | 350 | 0.0 | 0.0 | 0.00 | 0.00 | 0.00 | 94 | 1014.5 |
| 20260510114750 | 15 | 350 | 0.0 | 0.0 | 0.00 | 0.00 | 0.00 | 94 | 1014.5 |
| 20260510114514 | 14 | 350 | 0.0 | 0.0 | 0.00 | 0.00 | 0.00 | 94 | 1014.3 |
| 20260510113740 | 13 | 350 | 0.0 | 0.0 | 0.00 | 0.00 | 0.00 | 94 | 1014.3 |
| 20260510113240 | 12 | 350 | 0.0 | 0.0 | 0.00 | 0.00 | 0.00 | 94 | 1014.2 |
| 20260510112739 | 11 | 349 | 0.0 | 0.0 | 0.00 | 0.00 | 0.00 | 93 | 1014.2 |
| 20260510112240 | 11 | 350 | 0.0 | 0.0 | 0.00 | 0.00 | 0.00 | 93 | 1014.2 |
| 20260510112009 | 11 | 349 | 0.0 | 0.0 | 0.00 | 0.00 | 0.00 | 93 | 1014.2 |
| 20260510111238 | 11 | 349 | 0.0 | 0.0 | 0.00 | 0.00 | 0.00 | 93 | 1014.0 |
| 20260510110737 | 11 | 349 | 0.0 | 0.0 | 0.00 | 0.00 | 0.00 | 93 | 1014.0 |
| 20260510110236 | 11 | 349 | 0.0 | 0.0 | 0.00 | 0.00 | 0.00 | 93 | 1013.9 |
| 20260510105734 | 11 | 349 | 0.0 | 0.0 | 0.00 | 0.00 | 0.00 | 93 | 1013.9 |
| 20260510105235 | 11 | 349 | 0.0 | 0.0 | 0.00 | 0.00 | 0.00 | 93 | 1013.8 |
| 20260510104234 | 11 | 349 | 0.0 | 1.6 | 0.00 | 0.00 | 0.00 | 93 | 1013.8 |
| 20260510103730 | 11 | 349 | 0.0 | 1.6 | 0.00 | 0.00 | 0.00 | 93 | 1013.7 |
| 20260510103002 | 11 | 349 | 0.0 | 0.0 | 0.00 | 0.00 | 0.00 | 93 | 1013.7 |
| 20260510102229 | 11 | 349 | 0.0 | 0.0 | 0.00 | 0.00 | 0.00 | 93 | 1013.5 |
| 20260510101731 | 11 | 349 | 0.0 | 0.0 | 0.00 | 0.00 | 0.00 | 93 | 1013.5 |
| 20260510101230 | 11 | 349 | 0.0 | 0.0 | 0.00 | 0.00 | 0.00 | 93 | 1013.4 |
| 20260510100729 | 11 | 349 | 0.0 | 0.0 | 0.00 | 0.00 | 0.00 | 93 | 1013.3 |
| 20260510100501 | 11 | 349 | 0.0 | 0.0 | 0.00 | 0.00 | 0.00 | 93 | 1013.2 |
| 20260510095730 | 11 | 349 | 0.0 | 0.0 | 0.00 | 0.00 | 0.00 | 92 | 1013.1 |
| 20260510094729 | 11 | 349 | 0.0 | 0.0 | 0.00 | 0.00 | 0.00 | 92 | 1012.9 |
| 20260510094230 | 12 | 349 | 0.0 | 0.0 | 0.00 | 0.00 | 0.00 | 93 | 1012.9 |
| 20260510093729 | 12 | 349 | 0.0 | 0.0 | 0.00 | 0.00 | 0.00 | 93 | 1012.9 |
| 20260510093230 | 12 | 349 | 0.0 | 0.0 | 0.00 | 0.00 | 0.00 | 92 | 1013.0 |
| 20260510093000 | 12 | 349 | 0.0 | 0.0 | 0.00 | 0.00 | 0.00 | 92 | 1012.9 |
| 20260510092230 | 12 | 349 | 0.0 | 0.0 | 0.00 | 0.00 | 0.00 | 93 | 1012.8 |
| 20260510091730 | 12 | 349 | 0.0 | 0.0 | 0.00 | 0.00 | 0.00 | 93 | 1012.8 |
| 20260510091228 | 12 | 349 | 0.0 | 0.0 | 0.00 | 0.00 | 0.00 | 92 | 1012.8 |
| 20260510090954 | 12 | 349 | 0.0 | 0.0 | 0.00 | 0.00 | 0.00 | 92 | 1012.9 |
| 20260510090222 | 12 | 349 | 0.0 | 0.0 | 0.00 | 0.00 | 0.00 | 92 | 1012.7 |
| 20260510085721 | 12 | 349 | 0.0 | 0.0 | 0.00 | 0.00 | 0.00 | 92 | 1012.7 |
| 20260510085445 | 12 | 349 | 0.0 | 0.0 | 0.00 | 0.00 | 0.00 | 92 | 1012.7 |
| 20260510084707 | 12 | 349 | 0.0 | 0.0 | 0.00 | 0.00 | 0.00 | 92 | 1012.7 |
| 20260510084201 | 12 | 349 | 0.0 | 0.0 | 0.00 | 0.00 | 0.00 | 92 | 1012.6 |
| 20260510083655 | 12 | 349 | 0.0 | 0.0 | 0.00 | 0.00 | 0.00 | 92 | 1012.4 |
| 20260510083149 | 12 | 349 | 0.0 | 0.0 | 0.00 | 0.00 | 0.00 | 92 | 1012.4 |
| 20260510082915 | 12 | 349 | 0.0 | 0.0 | 0.00 | 0.00 | 0.00 | 92 | 1012.4 |
| 20260510082137 | 12 | 349 | 0.0 | 0.0 | 0.00 | 0.00 | 0.00 | 92 | 1012.4 |
| 20260510081631 | 12 | 349 | 0.0 | 0.0 | 0.00 | 0.00 | 0.00 | 92 | 1012.2 |
| 20260510081125 | 12 | 349 | 0.0 | 0.0 | 0.00 | 0.00 | 0.00 | 92 | 1012.3 |
| 20260510080619 | 12 | 349 | 0.0 | 0.0 | 0.00 | 0.00 | 0.00 | 92 | 1012.2 |
| 20260510080113 | 12 | 349 | 0.0 | 0.0 | 0.00 | 0.00 | 0.00 | 92 | 1012.2 |
| 20260510075607 | 12 | 349 | 0.0 | 0.0 | 0.00 | 0.00 | 0.00 | 91 | 1012.2 |
| 20260510075101 | 12 | 349 | 0.0 | 0.0 | 0.00 | 0.00 | 0.00 | 91 | 1012.2 |
| 20260510074555 | 13 | 349 | 0.0 | 0.0 | 0.00 | 0.00 | 0.00 | 91 | 1012.2 |
| 20260510074049 | 13 | 349 | 0.0 | 1.6 | 0.00 | 0.00 | 0.00 | 91 | 1012.2 |
| 20260510073037 | 13 | 349 | 0.0 | 0.0 | 0.00 | 0.00 | 0.00 | 91 | 1012.2 |
| 20260510072802 | 13 | 349 | 0.0 | 0.0 | 0.00 | 0.00 | 0.00 | 90 | 1012.0 |
| 20260510072257 | 13 | 350 | 0.0 | 0.0 | 0.00 | 0.00 | 0.00 | 90 | 1012.0 |
| 20260510071751 | 13 | 349 | 0.0 | 0.0 | 0.00 | 0.00 | 0.00 | 90 | 1012.0 |
| 20260510071014 | 13 | 349 | 0.0 | 0.0 | 0.00 | 0.00 | 0.00 | 90 | 1012.0 |
| 20260510070507 | 13 | 349 | 0.0 | 0.0 | 0.00 | 0.00 | 0.00 | 90 | 1012.1 |
| 20260510070001 | 13 | 349 | 0.0 | 1.6 | 0.00 | 0.00 | 0.00 | 90 | 1012.1 |
| 20260510065726 | 14 | 349 | 0.0 | 1.6 | 0.00 | 0.00 | 0.00 | 90 | 1012.0 |
| 20260510064950 | 14 | 349 | 0.0 | 0.0 | 0.00 | 0.00 | 0.00 | 90 | 1012.0 |
| 20260510064442 | 14 | 349 | 0.0 | 0.0 | 0.00 | 0.00 | 0.00 | 89 | 1012.1 |
| 20260510063937 | 14 | 349 | 0.0 | 0.0 | 0.00 | 0.00 | 0.00 | 89 | 1012.3 |
| 20260510063431 | 14 | 349 | 0.0 | 0.0 | 0.00 | 0.00 | 0.00 | 89 | 1012.1 |
| 20260510062925 | 14 | 349 | 0.0 | 1.6 | 0.00 | 0.00 | 0.00 | 89 | 1012.1 |
| 20260510062420 | 14 | 349 | 0.0 | 1.6 | 0.00 | 0.00 | 0.00 | 89 | 1012.2 |
| 20260510061913 | 15 | 349 | 0.0 | 1.6 | 0.00 | 0.00 | 0.00 | 89 | 1012.2 |
| 20260510061407 | 15 | 349 | 0.0 | 1.6 | 0.00 | 0.00 | 0.00 | 89 | 1012.4 |
| 20260510060901 | 15 | 349 | 0.0 | 1.6 | 0.00 | 0.00 | 0.00 | 88 | 1012.2 |
| 20260510060627 | 15 | 349 | 0.0 | 1.6 | 0.00 | 0.00 | 0.00 | 88 | 1012.2 |
| 20260510055849 | 15 | 349 | 0.0 | 1.6 | 0.00 | 0.00 | 0.00 | 88 | 1012.2 |
| 20260510055343 | 15 | 349 | 0.0 | 1.6 | 0.00 | 0.00 | 0.00 | 88 | 1012.2 |
| 20260510054837 | 15 | 349 | 0.0 | 1.6 | 0.00 | 0.00 | 0.00 | 88 | 1012.1 |
| 20260510054331 | 15 | 349 | 0.0 | 0.0 | 0.00 | 0.00 | 0.00 | 87 | 1012.2 |
| 20260510053826 | 15 | 349 | 0.0 | 1.6 | 0.00 | 0.00 | 0.00 | 87 | 1012.3 |
| 20260510053319 | 15 | 349 | 0.0 | 1.6 | 0.00 | 0.00 | 0.00 | 86 | 1012.2 |
| 20260510052812 | 15 | 349 | 0.0 | 3.2 | 0.00 | 0.00 | 0.00 | 86 | 1012.3 |
| 20260510052314 | 15 | 349 | 0.0 | 3.2 | 0.00 | 0.00 | 0.00 | 86 | 1012.5 |
| 20260510051813 | 15 | 349 | 0.0 | 3.2 | 0.00 | 0.00 | 0.00 | 86 | 1012.4 |
| 20260510051313 | 15 | 349 | 0.0 | 1.6 | 0.00 | 0.00 | 0.00 | 86 | 1012.4 |
| 20260510050812 | 15 | 349 | 0.0 | 1.6 | 0.00 | 0.00 | 0.00 | 85 | 1012.4 |
| 20260510050310 | 15 | 349 | 0.0 | 1.6 | 0.00 | 0.00 | 0.00 | 85 | 1012.4 |
| 20260510045807 | 15 | 349 | 0.0 | 1.6 | 0.00 | 0.00 | 0.00 | 85 | 1012.4 |
| 20260510045306 | 16 | 349 | 0.0 | 3.2 | 0.00 | 0.00 | 0.00 | 85 | 1012.5 |
| 20260510044803 | 16 | 349 | 0.0 | 3.2 | 0.00 | 0.00 | 0.00 | 84 | 1012.4 |
| 20260510044533 | 16 | 349 | 0.0 | 3.2 | 0.00 | 0.00 | 0.00 | 84 | 1012.4 |
| 20260510043759 | 16 | 349 | 0.0 | 3.2 | 0.00 | 0.00 | 0.00 | 84 | 1012.3 |
| 20260510043257 | 16 | 349 | 0.0 | 3.2 | 0.00 | 0.00 | 0.00 | 83 | 1012.5 |
| 20260510042757 | 16 | 349 | 0.0 | 1.6 | 0.00 | 0.00 | 0.00 | 83 | 1012.4 |
| 20260510042257 | 16 | 349 | 0.0 | 1.6 | 0.00 | 0.00 | 0.00 | 82 | 1012.3 |
| 20260510041756 | 16 | 349 | 0.0 | 1.6 | 0.00 | 0.00 | 0.00 | 82 | 1012.3 |
| 20260510041524 | 16 | 349 | 0.0 | 1.6 | 0.00 | 0.00 | 0.00 | 82 | 1012.3 |
| 20260510040751 | 16 | 349 | 0.0 | 1.6 | 0.00 | 0.00 | 0.00 | 81 | 1012.2 |
| 20260510040249 | 16 | 349 | 0.0 | 4.8 | 0.00 | 0.00 | 0.00 | 81 | 1012.2 |
| 20260510035747 | 16 | 349 | 0.0 | 4.8 | 0.00 | 0.00 | 0.00 | 81 | 1012.1 |
| 20260510035248 | 17 | 349 | 0.0 | 1.6 | 0.00 | 0.00 | 0.00 | 80 | 1012.1 |
| 20260510034748 | 17 | 349 | 0.0 | 3.2 | 0.00 | 0.00 | 0.00 | 80 | 1012.1 |
| 20260510034248 | 17 | 349 | 0.0 | 3.2 | 0.00 | 0.00 | 0.00 | 79 | 1012.0 |
| 20260510034019 | 17 | 349 | 0.0 | 1.6 | 0.00 | 0.00 | 0.00 | 79 | 1012.1 |
| 20260510033246 | 17 | 349 | 0.0 | 3.2 | 0.00 | 0.00 | 0.00 | 79 | 1012.0 |
| 20260510032746 | 17 | 350 | 0.0 | 6.4 | 0.00 | 0.00 | 0.00 | 79 | 1011.9 |
| 20260510032246 | 17 | 349 | 0.0 | 6.4 | 0.00 | 0.00 | 0.00 | 79 | 1011.8 |
| 20260510031746 | 17 | 349 | 0.0 | 1.6 | 0.00 | 0.00 | 0.00 | 78 | 1011.9 |
| 20260510031517 | 17 | 349 | 0.0 | 4.8 | 0.00 | 0.00 | 0.00 | 78 | 1011.8 |
| 20260510030741 | 17 | 349 | 0.0 | 4.8 | 0.00 | 0.00 | 0.00 | 78 | 1011.9 |
| 20260510030242 | 17 | 349 | 0.0 | 3.2 | 0.00 | 0.00 | 0.00 | 78 | 1011.9 |
| 20260510025740 | 17 | 349 | 0.0 | 1.6 | 0.00 | 0.00 | 0.00 | 78 | 1011.8 |
| 20260510025239 | 17 | 349 | 0.0 | 4.8 | 0.00 | 0.00 | 0.00 | 77 | 1011.8 |
| 20260510024737 | 17 | 349 | 0.0 | 4.8 | 0.00 | 0.00 | 0.00 | 78 | 1011.6 |
| 20260510024508 | 17 | 349 | 0.0 | 6.4 | 0.00 | 0.00 | 0.00 | 78 | 1011.7 |
| 20260510023733 | 17 | 349 | 0.0 | 6.4 | 0.00 | 0.00 | 0.00 | 78 | 1011.5 |
| 20260510023503 | 17 | 349 | 0.0 | 1.6 | 0.00 | 0.00 | 0.00 | 77 | 1011.5 |
| 20260510022730 | 17 | 349 | 0.0 | 1.6 | 0.00 | 0.00 | 0.00 | 77 | 1011.5 |
| 20260510022228 | 17 | 349 | 0.0 | 1.6 | 0.00 | 0.00 | 0.00 | 77 | 1011.5 |
| 20260510021725 | 17 | 349 | 0.0 | 3.2 | 0.00 | 0.00 | 0.00 | 76 | 1011.4 |
| 20260510021226 | 17 | 349 | 0.0 | 3.2 | 0.00 | 0.00 | 0.00 | 76 | 1011.4 |
| 20260510020726 | 17 | 349 | 0.0 | 1.6 | 0.00 | 0.00 | 0.00 | 76 | 1011.3 |
| 20260510020223 | 17 | 349 | 0.0 | 1.6 | 0.00 | 0.00 | 0.00 | 76 | 1011.3 |
| 20260510015722 | 17 | 349 | 0.0 | 4.8 | 0.00 | 0.00 | 0.00 | 75 | 1011.1 |
| 20260510015220 | 17 | 349 | 0.0 | 4.8 | 0.00 | 0.00 | 0.00 | 75 | 1011.1 |
| 20260510014718 | 17 | 349 | 0.0 | 1.6 | 0.00 | 0.00 | 0.00 | 75 | 1011.1 |
| 20260510014215 | 17 | 349 | 0.0 | 1.6 | 0.00 | 0.00 | 0.00 | 75 | 1011.0 |
| 20260510013714 | 17 | 349 | 0.0 | 1.6 | 0.00 | 0.00 | 0.00 | 75 | 1010.9 |
| 20260510013212 | 17 | 349 | 0.0 | 1.6 | 0.00 | 0.00 | 0.00 | 75 | 1010.7 |
| 20260510012710 | 17 | 349 | 0.0 | 1.6 | 0.00 | 0.00 | 0.00 | 75 | 1010.6 |
| 20260510012208 | 17 | 349 | 0.0 | 1.6 | 0.00 | 0.00 | 0.00 | 75 | 1010.5 |
| 20260510011705 | 17 | 349 | 0.0 | 1.6 | 0.00 | 0.00 | 0.00 | 74 | 1010.4 |
| 20260510011204 | 17 | 349 | 0.0 | 1.6 | 0.00 | 0.00 | 0.00 | 74 | 1010.5 |
| 20260510010703 | 17 | 349 | 0.0 | 1.6 | 0.00 | 0.00 | 0.00 | 74 | 1010.5 |
| 20260510010157 | 17 | 349 | 0.0 | 1.6 | 0.00 | 0.00 | 0.00 | 74 | 1010.4 |
| 20260510005650 | 17 | 349 | 0.0 | 1.6 | 0.00 | 0.00 | 0.00 | 74 | 1010.3 |
| 20260510005145 | 17 | 349 | 0.0 | 1.6 | 0.00 | 0.00 | 0.00 | 74 | 1010.2 |
| 20260510004639 | 17 | 349 | 0.0 | 0.0 | 0.00 | 0.00 | 0.00 | 73 | 1010.1 |
| 20260510004133 | 18 | 349 | 0.0 | 0.0 | 0.00 | 0.00 | 0.00 | 73 | 1010.1 |
| 20260510003859 | 18 | 349 | 0.0 | 1.6 | 0.00 | 0.00 | 0.00 | 72 | 1010.1 |
| 20260510003122 | 18 | 349 | 0.0 | 1.6 | 0.00 | 0.00 | 0.00 | 72 | 1010.0 |
| 20260510002847 | 18 | 349 | 0.0 | 1.6 | 0.00 | 0.00 | 0.00 | 71 | 1010.1 |
| 20260510002109 | 18 | 349 | 0.0 | 0.0 | 0.00 | 0.00 | 0.00 | 71 | 1010.0 |
| 20260510001603 | 18 | 349 | 0.0 | 0.0 | 0.00 | 0.00 | 0.00 | 70 | 1010.0 |
| 20260510001057 | 19 | 349 | 0.0 | 0.0 | 0.00 | 0.00 | 0.00 | 69 | 1010.0 |
| 20260510000552 | 19 | 349 | 0.0 | 0.0 | 0.00 | 0.00 | 0.00 | 68 | 1009.9 |
| 20260510000045 | 20 | 349 | 0.0 | 0.0 | 0.00 | 0.00 | 0.00 | 68 | 1009.9 |
| 20260509235539 | 20 | 349 | 0.0 | 0.0 | 0.00 | 0.00 | 0.00 | 67 | 1009.8 |
| 20260509235307 | 20 | 349 | 0.0 | 0.0 | 0.00 | 0.00 | 0.00 | 66 | 1009.8 |
| 20260509234527 | 21 | 349 | 0.0 | 0.0 | 0.00 | 0.00 | 0.00 | 66 | 1009.7 |
| 20260509234021 | 21 | 349 | 0.0 | 0.0 | 0.00 | 0.00 | 0.00 | 65 | 1009.7 |
| 20260509233516 | 21 | 349 | 0.0 | 1.6 | 0.00 | 0.00 | 0.00 | 64 | 1009.6 |
| 20260509233009 | 21 | 349 | 0.0 | 1.6 | 0.00 | 0.00 | 0.00 | 64 | 1009.5 |
| 20260509232503 | 22 | 349 | 0.0 | 3.2 | 0.00 | 0.00 | 0.00 | 63 | 1009.6 |
| 20260509231451 | 22 | 349 | 0.0 | 1.6 | 0.00 | 0.00 | 0.00 | 62 | 1009.6 |
| 20260509230439 | 22 | 349 | 0.0 | 1.6 | 0.00 | 0.00 | 0.00 | 60 | 1009.6 |
| 20260509225933 | 23 | 349 | 0.0 | 3.2 | 0.00 | 0.00 | 0.00 | 60 | 1009.6 |
| 20260509225426 | 23 | 349 | 0.0 | 3.2 | 0.00 | 0.00 | 0.00 | 59 | 1009.5 |
| 20260509225151 | 23 | 349 | 0.0 | 1.6 | 0.00 | 0.00 | 0.00 | 59 | 1009.5 |
| 20260509224415 | 23 | 349 | 0.0 | 4.8 | 0.00 | 0.00 | 0.00 | 58 | 1009.6 |
| 20260509223909 | 23 | 349 | 0.0 | 4.8 | 0.00 | 0.00 | 0.00 | 57 | 1009.6 |
| 20260509223403 | 23 | 349 | 0.0 | 4.8 | 0.00 | 0.00 | 0.00 | 57 | 1009.7 |
| 20260509222857 | 23 | 349 | 0.0 | 4.8 | 0.00 | 0.00 | 0.00 | 56 | 1009.5 |
| 20260509222621 | 24 | 349 | 0.0 | 3.2 | 0.00 | 0.00 | 0.00 | 56 | 1009.5 |
| 20260509221845 | 24 | 349 | 0.0 | 1.6 | 0.00 | 0.00 | 0.00 | 56 | 1009.4 |
| 20260509221610 | 25 | 349 | 0.0 | 1.6 | 0.00 | 0.00 | 0.00 | 55 | 1009.4 |
| 20260509220835 | 25 | 349 | 0.0 | 1.6 | 0.00 | 0.00 | 0.00 | 55 | 1009.4 |
| 20260509220336 | 25 | 349 | 0.0 | 3.2 | 0.00 | 0.00 | 0.00 | 55 | 1009.2 |
| 20260509215835 | 25 | 349 | 0.0 | 3.2 | 0.00 | 0.00 | 0.00 | 53 | 1009.1 |
| 20260509215333 | 25 | 349 | 0.0 | 3.2 | 0.00 | 0.00 | 0.00 | 52 | 1009.2 |
| 20260509214833 | 25 | 349 | 0.0 | 4.8 | 0.00 | 0.00 | 0.00 | 52 | 1009.2 |
| 20260509214333 | 26 | 349 | 1.6 | 8.0 | 0.00 | 0.00 | 0.00 | 53 | 1009.2 |
| 20260509213831 | 26 | 349 | 0.0 | 8.0 | 0.00 | 0.00 | 0.00 | 52 | 1009.2 |
| 20260509213331 | 26 | 349 | 0.0 | 6.4 | 0.00 | 0.00 | 0.00 | 54 | 1009.1 |
| 20260509212831 | 25 | 349 | 1.6 | 6.4 | 0.00 | 0.00 | 0.00 | 53 | 1008.9 |
| 20260509212329 | 25 | 349 | 1.6 | 6.4 | 0.00 | 0.00 | 0.00 | 55 | 1009.1 |
| 20260509211830 | 24 | 349 | 1.6 | 8.0 | 0.00 | 0.00 | 0.00 | 54 | 1009.0 |
| 20260509211329 | 25 | 349 | 1.6 | 8.0 | 0.00 | 0.00 | 0.00 | 52 | 1009.0 |
| 20260509210827 | 25 | 349 | 0.0 | 6.4 | 0.00 | 0.00 | 0.00 | 51 | 1009.0 |
| 20260509210325 | 26 | 349 | 1.6 | 14.5 | 0.00 | 0.00 | 0.00 | 51 | 1009.1 |
| 20260509205823 | 26 | 349 | 1.6 | 14.5 | 0.00 | 0.00 | 0.00 | 49 | 1009.1 |
| 20260509205321 | 27 | 349 | 1.6 | 8.0 | 0.00 | 0.00 | 0.00 | 50 | 1009.1 |
| 20260509204821 | 27 | 349 | 1.6 | 8.0 | 0.00 | 0.00 | 0.00 | 47 | 1009.2 |
| 20260509204321 | 27 | 349 | 3.2 | 6.4 | 0.00 | 0.00 | 0.00 | 47 | 1009.0 |
| 20260509203820 | 27 | 349 | 3.2 | 14.5 | 0.00 | 0.00 | 0.00 | 50 | 1009.1 |
| 20260509203549 | 27 | 349 | 1.6 | 14.5 | 0.00 | 0.00 | 0.00 | 46 | 1009.0 |
| 20260509203043 | 27 | 349 | 1.6 | 8.0 | 0.00 | 0.00 | 0.00 | 51 | 1009.0 |
| 20260509202033 | 27 | 349 | 1.6 | 8.0 | 0.00 | 0.00 | 0.00 | 48 | 1008.8 |
| 20260509201303 | 27 | 349 | 3.2 | 8.0 | 0.00 | 0.00 | 0.00 | 49 | 1009.0 |
| 20260509200803 | 27 | 349 | 3.2 | 12.9 | 0.00 | 0.00 | 0.00 | 49 | 1008.8 |
| 20260509200303 | 27 | 349 | 3.2 | 12.9 | 0.00 | 0.00 | 0.00 | 49 | 1009.0 |
| 20260509200034 | 27 | 349 | 3.2 | 11.3 | 0.00 | 0.00 | 0.00 | 50 | 1009.1 |
| 20260509195306 | 27 | 349 | 1.6 | 8.0 | 0.00 | 0.00 | 0.00 | 52 | 1009.2 |
| 20260509194801 | 26 | 349 | 1.6 | 8.0 | 0.00 | 0.00 | 0.00 | 51 | 1009.2 |
| 20260509193800 | 27 | 349 | 3.2 | 9.7 | 0.00 | 0.00 | 0.00 | 50 | 1009.5 |
| 20260509193532 | 27 | 349 | 1.6 | 9.7 | 0.00 | 0.00 | 0.00 | 50 | 1009.6 |
| 20260509192757 | 27 | 349 | 1.6 | 12.9 | 0.00 | 0.00 | 0.00 | 51 | 1009.6 |
| 20260509192257 | 27 | 349 | 3.2 | 12.9 | 0.00 | 0.00 | 0.00 | 52 | 1009.7 |
| 20260509191757 | 27 | 349 | 1.6 | 6.4 | 0.00 | 0.00 | 0.00 | 51 | 1009.7 |
| 20260509191257 | 27 | 349 | 1.6 | 8.0 | 0.00 | 0.00 | 0.00 | 50 | 1009.7 |
| 20260509190757 | 27 | 349 | 1.6 | 8.0 | 0.00 | 0.00 | 0.00 | 52 | 1009.8 |
| 20260509190257 | 26 | 349 | 1.6 | 12.9 | 0.00 | 0.00 | 0.00 | 52 | 1009.9 |
| 20260509185756 | 26 | 349 | 3.2 | 12.9 | 0.00 | 0.00 | 0.00 | 51 | 1009.8 |
| 20260509185257 | 26 | 349 | 3.2 | 12.9 | 0.00 | 0.00 | 0.00 | 54 | 1009.9 |
| 20260509184757 | 25 | 349 | 1.6 | 8.0 | 0.00 | 0.00 | 0.00 | 54 | 1009.9 |
| 20260509184256 | 25 | 350 | 1.6 | 16.1 | 0.00 | 0.00 | 0.00 | 56 | 1009.9 |
| 20260509183755 | 24 | 349 | 1.6 | 16.1 | 0.00 | 0.00 | 0.00 | 55 | 1010.1 |
| 20260509183255 | 24 | 349 | 1.6 | 6.4 | 0.00 | 0.00 | 0.00 | 56 | 1010.2 |
| 20260509183026 | 25 | 349 | 1.6 | 12.9 | 0.00 | 0.00 | 0.00 | 56 | 1010.4 |
| 20260509182253 | 25 | 349 | 1.6 | 12.9 | 0.00 | 0.00 | 0.00 | 54 | 1010.4 |
| 20260509181253 | 25 | 349 | 1.6 | 12.9 | 0.00 | 0.00 | 0.00 | 54 | 1010.4 |
| 20260509180750 | 25 | 350 | 1.6 | 12.9 | 0.00 | 0.00 | 0.00 | 53 | 1010.3 |
| 20260509180249 | 25 | 349 | 1.6 | 9.7 | 0.00 | 0.00 | 0.00 | 52 | 1010.5 |
| 20260509175749 | 26 | 349 | 1.6 | 9.7 | 0.00 | 0.00 | 0.00 | 53 | 1010.7 |
| 20260509175250 | 26 | 349 | 3.2 | 11.3 | 0.00 | 0.00 | 0.00 | 53 | 1010.6 |
| 20260509174748 | 26 | 349 | 3.2 | 12.9 | 0.00 | 0.00 | 0.00 | 53 | 1010.6 |
| 20260509174518 | 26 | 349 | 1.6 | 12.9 | 0.00 | 0.00 | 0.00 | 54 | 1010.7 |
| 20260509173746 | 25 | 349 | 3.2 | 11.3 | 0.00 | 0.00 | 0.00 | 53 | 1010.7 |
| 20260509173240 | 25 | 349 | 1.6 | 9.7 | 0.00 | 0.00 | 0.00 | 54 | 1010.9 |
| 20260509172734 | 25 | 349 | 1.6 | 9.7 | 0.00 | 0.00 | 0.00 | 54 | 1010.9 |
| 20260509172228 | 24 | 350 | 1.6 | 9.7 | 0.00 | 0.00 | 0.00 | 56 | 1010.9 |
| 20260509171722 | 24 | 349 | 1.6 | 9.7 | 0.00 | 0.00 | 0.00 | 56 | 1010.9 |
| 20260509171216 | 24 | 349 | 3.2 | 8.0 | 0.00 | 0.00 | 0.00 | 55 | 1010.9 |
| 20260509170712 | 23 | 349 | 3.2 | 9.7 | 0.00 | 0.00 | 0.00 | 57 | 1011.1 |
| 20260509170204 | 23 | 349 | 4.8 | 16.1 | 0.00 | 0.00 | 0.00 | 55 | 1011.0 |
| 20260509165928 | 24 | 349 | 3.2 | 16.1 | 0.00 | 0.00 | 0.00 | 54 | 1011.0 |
| 20260509165152 | 24 | 349 | 3.2 | 12.9 | 0.00 | 0.00 | 0.00 | 59 | 1011.0 |
| 20260509164917 | 23 | 349 | 3.2 | 12.9 | 0.00 | 0.00 | 0.00 | 57 | 1011.0 |
| 20260509164139 | 23 | 349 | 3.2 | 12.9 | 0.00 | 0.00 | 0.00 | 57 | 1011.1 |
| 20260509163632 | 23 | 349 | 3.2 | 12.9 | 0.00 | 0.00 | 0.00 | 56 | 1011.1 |
| 20260509163126 | 23 | 349 | 4.8 | 11.3 | 0.00 | 0.00 | 0.00 | 56 | 1011.3 |
| 20260509162620 | 23 | 349 | 4.8 | 17.7 | 0.00 | 0.00 | 0.00 | 58 | 1011.3 |
| 20260509162114 | 23 | 349 | 3.2 | 16.1 | 0.00 | 0.00 | 0.00 | 58 | 1011.5 |
| 20260509161608 | 23 | 349 | 3.2 | 12.9 | 0.00 | 0.00 | 0.00 | 59 | 1011.7 |
| 20260509161102 | 24 | 350 | 1.6 | 12.9 | 0.00 | 0.00 | 0.00 | 58 | 1011.9 |
| 20260509160556 | 23 | 349 | 1.6 | 8.0 | 0.00 | 0.00 | 0.00 | 61 | 1011.6 |
| 20260509160049 | 23 | 349 | 3.2 | 11.3 | 0.00 | 0.00 | 0.00 | 61 | 1011.5 |
| 20260509155544 | 23 | 349 | 3.2 | 11.3 | 0.00 | 0.00 | 0.00 | 59 | 1011.7 |
| 20260509155038 | 23 | 349 | 1.6 | 11.3 | 0.00 | 0.00 | 0.00 | 62 | 1011.7 |
| 20260509154532 | 22 | 349 | 3.2 | 11.3 | 0.00 | 0.00 | 0.00 | 65 | 1011.7 |
| 20260509154257 | 22 | 349 | 1.6 | 9.7 | 0.00 | 0.00 | 0.00 | 67 | 1011.7 |
| 20260509153520 | 21 | 349 | 1.6 | 9.7 | 0.00 | 0.00 | 0.00 | 66 | 1011.9 |
| 20260509153014 | 20 | 349 | 1.6 | 6.4 | 0.00 | 0.00 | 0.00 | 68 | 1011.9 |
| 20260509152508 | 20 | 349 | 1.6 | 8.0 | 0.00 | 0.00 | 0.00 | 67 | 1012.0 |
| 20260509152002 | 20 | 350 | 1.6 | 11.3 | 0.00 | 0.00 | 0.00 | 68 | 1012.2 |
| 20260509151456 | 20 | 349 | 1.6 | 11.3 | 0.00 | 0.00 | 0.00 | 68 | 1012.4 |
| 20260509150950 | 20 | 349 | 1.6 | 9.7 | 0.00 | 0.00 | 0.00 | 68 | 1012.6 |
| 20260509150444 | 20 | 349 | 1.6 | 8.0 | 0.00 | 0.00 | 0.00 | 66 | 1012.7 |
| 20260509145945 | 20 | 349 | 1.6 | 9.7 | 0.00 | 0.00 | 0.00 | 66 | 1012.6 |
| 20260509144945 | 21 | 349 | 3.2 | 17.7 | 0.00 | 0.00 | 0.00 | 67 | 1012.5 |
| 20260509144444 | 21 | 350 | 3.2 | 11.3 | 0.00 | 0.00 | 0.00 | 67 | 1012.3 |
| 20260509143944 | 20 | 349 | 3.2 | 11.3 | 0.00 | 0.00 | 0.00 | 66 | 1012.4 |
| 20260509143444 | 20 | 350 | 3.2 | 9.7 | 0.00 | 0.00 | 0.00 | 68 | 1012.3 |
| 20260509142944 | 20 | 350 | 3.2 | 9.7 | 0.00 | 0.00 | 0.00 | 70 | 1012.4 |
| 20260509142442 | 19 | 350 | 3.2 | 11.3 | 0.00 | 0.00 | 0.00 | 68 | 1012.6 |
| 20260509141942 | 18 | 350 | 1.6 | 11.3 | 0.00 | 0.00 | 0.00 | 71 | 1012.9 |
| 20260509141443 | 18 | 350 | 1.6 | 8.0 | 0.00 | 0.00 | 0.00 | 71 | 1013.0 |
| 20260509140942 | 18 | 350 | 1.6 | 9.7 | 0.00 | 0.00 | 0.00 | 70 | 1013.1 |
| 20260509140442 | 18 | 349 | 1.6 | 9.7 | 0.00 | 0.00 | 0.00 | 68 | 1013.0 |
| 20260509135442 | 18 | 350 | 3.2 | 14.5 | 0.00 | 0.00 | 0.00 | 68 | 1013.0 |
| 20260509134943 | 18 | 349 | 1.6 | 9.7 | 0.00 | 0.00 | 0.00 | 69 | 1013.0 |
| 20260509134442 | 18 | 349 | 1.6 | 9.7 | 0.00 | 0.00 | 0.00 | 69 | 1013.1 |
| 20260509133942 | 18 | 350 | 1.6 | 9.7 | 0.00 | 0.00 | 0.00 | 68 | 1013.1 |
| 20260509133436 | 18 | 350 | 1.6 | 9.7 | 0.00 | 0.00 | 0.00 | 71 | 1013.1 |
| 20260509132931 | 18 | 350 | 1.6 | 9.7 | 0.00 | 0.00 | 0.00 | 70 | 1013.0 |
| 20260509132423 | 18 | 350 | 1.6 | 11.3 | 0.00 | 0.00 | 0.00 | 72 | 1013.0 |
| 20260509131918 | 17 | 350 | 1.6 | 11.3 | 0.00 | 0.00 | 0.00 | 71 | 1013.1 |
| 20260509131412 | 17 | 350 | 1.6 | 6.4 | 0.00 | 0.00 | 0.00 | 73 | 1013.2 |